Cahokia, IL

9:11 AM CST on January 23, 2018 (GMT -0600)
Saint Louis Downtown

Weather History for KCPS - March, 2014

Change the Weather History Date:

Tuesday, March 25, 2014

  Actual Average Record
Temperature  
Mean Temperature 32 °F -  
Max Temperature 41 °F 71 °F 84 °F (2007)
Min Temperature 25 °F 42 °F 11 °F (1955)
Degree Days  
Heating Degree Days 32    
Moisture  
Dew Point 21 °F    
Average Humidity 65    
Maximum Humidity 96    
Minimum Humidity 30    
Precipitation  
Precipitation 0.01 in - - ()
Sea Level Pressure  
Sea Level Pressure 30.22 in    
Wind  
Wind Speed 10 mph (NW)    
Max Wind Speed 22 mph    
Max Gust Speed 36 mph    
Visibility 8 miles    
Events Snow    
Averages and records for this station are not official NWS values.
T = Trace of Precipitation, MM = Missing Value Source: NWS Daily Summary

Daily Weather History Graph

Daily Weather History Graph

Search for Another Location

Airport or City:

Trip Planner

Search our weather history database for the weather conditions in past years. The results will help you decide how hot, cold, wet, or windy it might be!

Date:

Astronomy

Mar. 25, 2014 Rise Set
Actual Time 6:56 AM CDT 7:17 PM CDT
Civil Twilight 6:29 AM CDT 7:43 PM CDT
Nautical Twilight 5:58 AM CDT 8:15 PM CDT
Astronomical Twilight 5:26 AM CDT 8:47 PM CDT
Moon 3:14 AM CDT (3/25) 1:51 PM CDT (3/25)
Length of Visible Light 13h 14m
Length of Day
12h 21m
Waning Crescent, 32% of the Moon is Illuminated
Mar 25
Waning Crescent
Mar 30
New
Apr 7
First Quarter
Apr 15
Full
Apr 22
Last Quarter

Hourly Weather History & Observations

Time (CDT) Temp. Windchill Dew Point Humidity Pressure Visibility Wind Dir Wind Speed Gust Speed Precip Events Conditions
12:53 AM 30.9 °F 26.2 °F 30.0 °F 96% 30.18 in 4.0 mi WSW 4.6 mph - N/A   Overcast
1:53 AM 32.0 °F 27.5 °F 30.0 °F 92% 30.16 in 5.0 mi SW 4.6 mph - N/A   Overcast
2:46 AM 32.0 °F 24.2 °F 30.0 °F 92% 30.14 in 1.8 mi West 9.2 mph - 0.00 in Snow Light Snow
2:53 AM 32.0 °F 25.6 °F 30.9 °F 96% 30.15 in 1.0 mi West 6.9 mph - 0.01 in Snow Light Snow
2:58 AM 32.0 °F 25.6 °F 30.9 °F 96% 30.14 in 1.2 mi West 6.9 mph - 0.00 in Snow Light Snow
3:03 AM 32.0 °F 26.4 °F 30.9 °F 96% 30.13 in 2.0 mi West 5.8 mph - 0.00 in Snow Light Snow
3:13 AM 32.0 °F 26.4 °F 30.9 °F 96% 30.13 in 3.0 mi West 5.8 mph - 0.00 in Snow Light Snow
3:22 AM 32.0 °F 26.4 °F 30.9 °F 96% 30.13 in 5.0 mi West 5.8 mph - 0.00 in   Overcast
3:53 AM 33.1 °F 26.1 °F 30.0 °F 89% 30.14 in 9.0 mi WNW 8.1 mph - 0.00 in   Overcast
4:02 AM 33.1 °F 24.9 °F 30.0 °F 89% 30.13 in 9.0 mi WNW 10.4 mph - N/A   Overcast
4:39 AM 33.1 °F 22.2 °F 28.0 °F 82% 30.13 in 10.0 mi NW 17.3 mph 21.9 mph N/A   Overcast
4:53 AM 33.1 °F 22.6 °F 27.0 °F 78% 30.14 in 10.0 mi NW 16.1 mph - N/A   Overcast
5:53 AM 32.0 °F 21.6 °F 26.1 °F 79% 30.16 in 10.0 mi WNW 15.0 mph - N/A   Mostly Cloudy
6:53 AM 30.0 °F 20.5 °F 24.1 °F 79% 30.19 in 10.0 mi NW 11.5 mph - N/A   Partly Cloudy
7:53 AM 30.9 °F 20.7 °F 25.0 °F 79% 30.22 in 10.0 mi WNW 13.8 mph - N/A   Partly Cloudy
8:53 AM 32.0 °F 20.8 °F 24.1 °F 73% 30.24 in 10.0 mi NW 17.3 mph - N/A   Scattered Clouds
9:53 AM 35.1 °F 25.5 °F 21.0 °F 57% 30.26 in 10.0 mi NNW 15.0 mph 25.3 mph N/A   Mostly Cloudy
10:53 AM 36.0 °F 24.7 °F 15.1 °F 43% 30.27 in 10.0 mi NW 21.9 mph 29.9 mph N/A   Mostly Cloudy
11:53 AM 37.0 °F 26.2 °F 12.0 °F 36% 30.27 in 10.0 mi NW 21.9 mph 29.9 mph N/A   Overcast
12:53 PM 37.0 °F 26.2 °F 12.0 °F 36% 30.28 in 10.0 mi NW 21.9 mph 35.7 mph N/A   Mostly Cloudy
1:53 PM 37.0 °F 26.2 °F 12.0 °F 36% 30.28 in 10.0 mi NW 21.9 mph 31.1 mph N/A   Mostly Cloudy
2:53 PM 39.0 °F 28.8 °F 10.9 °F 32% 30.27 in 10.0 mi NW 21.9 mph 31.1 mph N/A   Mostly Cloudy
3:53 PM 37.9 °F 27.3 °F 12.0 °F 35% 30.27 in 10.0 mi NW 21.9 mph 26.5 mph N/A   Mostly Cloudy
4:53 PM 39.0 °F 30.3 °F 10.0 °F 30% 30.26 in 10.0 mi NW 16.1 mph 28.8 mph N/A   Partly Cloudy
5:53 PM 37.0 °F 28.1 °F 9.0 °F 31% 30.26 in 10.0 mi WNW 15.0 mph - N/A   Clear
6:53 PM 35.1 °F 25.9 °F 10.0 °F 35% 30.27 in 10.0 mi NNW 13.8 mph - N/A   Partly Cloudy
7:53 PM 33.1 °F 23.9 °F 10.0 °F 38% 30.28 in 10.0 mi NW 12.7 mph - N/A   Clear
8:53 PM 30.9 °F 22.8 °F 10.9 °F 43% 30.29 in 10.0 mi NNW 9.2 mph - N/A   Clear
9:53 PM 28.0 °F 21.7 °F 10.9 °F 49% 30.30 in 10.0 mi NNE 5.8 mph - N/A   Clear
10:53 PM 26.1 °F 21.9 °F 10.9 °F 53% 30.32 in 10.0 mi NNE 3.5 mph - N/A   Clear
11:53 PM 25.0 °F - 10.9 °F 55% 30.32 in 10.0 mi Calm Calm - N/A   Clear